TimeEDT,TemperatureF,Dew PointF,Humidity,Sea Level PressureIn,VisibilityMPH,Wind Direction,Wind SpeedMPH,Gust SpeedMPH,PrecipitationIn,Events,Conditions,WindDirDegrees,DateUTC
12:54 AM,57.9,52.0,81,30.00,10.0,Calm,Calm,-,N/A,,Overcast,0,2013-10-16 04:54:00
1:54 AM,64.9,51.1,61,29.99,10.0,Variable,6.9,-,N/A,,Overcast,0,2013-10-16 05:54:00
2:54 AM,64.0,50.0,60,29.96,10.0,SSE,11.5,18.4,N/A,,Overcast,150,2013-10-16 06:54:00
3:54 AM,64.0,46.0,52,29.96,10.0,SSE,6.9,-,N/A,,Overcast,160,2013-10-16 07:54:00
4:54 AM,63.0,45.0,52,29.95,10.0,SSE,9.2,-,N/A,,Overcast,150,2013-10-16 08:54:00
5:54 AM,62.1,45.0,53,29.94,10.0,SSE,12.7,-,N/A,,Overcast,150,2013-10-16 09:54:00
6:54 AM,60.1,45.0,57,29.94,10.0,ESE,5.8,-,N/A,,Overcast,110,2013-10-16 10:54:00
7:54 AM,60.1,45.0,57,29.94,10.0,ESE,6.9,-,N/A,,Overcast,120,2013-10-16 11:54:00
8:54 AM,62.1,44.1,52,29.94,10.0,South,9.2,-,N/A,,Overcast,190,2013-10-16 12:54:00
9:54 AM,62.1,45.0,53,29.93,10.0,South,11.5,-,N/A,,Overcast,170,2013-10-16 13:54:00
10:54 AM,63.0,46.0,54,29.93,10.0,South,6.9,-,N/A,,Overcast,180,2013-10-16 14:54:00
11:54 AM,64.0,48.9,58,29.91,10.0,South,6.9,-,0.00,Rain,Light Rain,170,2013-10-16 15:54:00
12:54 PM,64.9,48.9,56,29.89,10.0,South,9.2,-,0.00,,Overcast,170,2013-10-16 16:54:00
1:54 PM,66.0,50.0,56,29.88,10.0,SSW,10.4,-,N/A,,Overcast,200,2013-10-16 17:54:00
2:54 PM,64.9,52.0,63,29.86,10.0,South,6.9,-,0.00,Rain,Light Rain,170,2013-10-16 18:54:00
3:24 PM,62.6,53.6,72,29.88,2.0,SSW,10.4,-,0.01,Rain,Rain,210,2013-10-16 19:24:00
3:28 PM,60.8,53.6,77,29.87,1.5,South,10.4,-,0.03,Rain,Rain,190,2013-10-16 19:28:00
3:37 PM,60.8,55.4,82,29.87,3.0,South,9.2,-,0.06,Rain,Rain,170,2013-10-16 19:37:00
3:54 PM,60.1,55.0,83,29.86,10.0,SSE,8.1,-,0.07,Rain,Light Rain,150,2013-10-16 19:54:00
4:54 PM,61.0,55.0,81,29.85,10.0,SSE,4.6,-,0.00,Rain,Light Rain,150,2013-10-16 20:54:00
5:54 PM,60.1,55.9,86,29.82,10.0,ESE,5.8,-,0.01,Rain,Light Rain,120,2013-10-16 21:54:00
6:54 PM,60.1,54.0,80,29.82,10.0,SE,6.9,-,0.00,,Scattered Clouds,140,2013-10-16 22:54:00
7:54 PM,60.1,54.0,80,29.79,10.0,SE,8.1,-,N/A,,Mostly Cloudy,130,2013-10-16 23:54:00
8:54 PM,61.0,54.0,78,29.81,10.0,Calm,Calm,-,N/A,,Overcast,0,2013-10-17 00:54:00
9:54 PM,62.1,54.0,75,29.81,10.0,South,16.1,-,0.00,Rain,Light Rain,190,2013-10-17 01:54:00
10:54 PM,61.0,55.0,81,29.79,10.0,South,6.9,-,0.01,Rain,Light Rain,190,2013-10-17 02:54:00
11:27 PM,60.8,55.4,82,29.81,5.0,SW,8.1,-,0.03,Rain,Light Rain,220,2013-10-17 03:27:00
11:54 PM,60.1,57.0,90,29.82,5.0,West,12.7,-,0.07,Rain,Light Rain,260,2013-10-17 03:54:00